CZ-6A R/B, 65822

Orbit data source: Space-Track

CZ-6A R/B, 65822 is space debris in LEO originally from a launch on Sat, 27 Sep 2025 UTC launched from the Taiyaun Space Center, China (TSC). Debris objects in space refer to the collection of defunct objects orbiting the Earth. Examples of debris include non-operational satellites, rocket bodies, and fragments generated from explosions, collisions, or faulty payload assembly.

Loading next visibility...
Identifier
65822, 2025-220F
Orbit
LEO
Country
Flag of CNCN / PRC
Related business
Manufacturer
SAST
Mission
Spacecraft
Bus & Motor
CZ-6A STAGE 2, YF-115
Mass
~6,000 kg wet, ~6,000 kg dry
Launch date (UTC)
2025-09-27 (9 months ago)
Launch vehicle
Unknown
Launch site
Taiyaun Space Center, China (TSC)
Object type
Payload
Rocket body
Debris
Shape & HBR
Unknown shape, 8.0 m
Radar Cross Section
Large (>1 m²)

Expand to show TLE details & history
Last TLE update: 1 day ago

TLE from 1 day ago
0 CZ-6A R/B
1 65822U 25220F   26170.69452671  .00000055  00000-0  27065-4 0  9994
2 65822  86.5083  32.8148 0104813  24.5538 336.0574 13.94207586 36951
Epoch: 2026-06-19T16:40Z
TLE epoch observation values (Epoch: 2026-06-19T16:40:07.107Z)
Latitude
-0.00006°
Longitude
-125.13464°
Altitude
847.184 km
Speed
7.464 km/s
True Right ascension
02h 11m 15s
True Declination
0° 00' 00"
Sunlit
Object was in daylight at epoch
Visualization orbit readout
Latitude
Unknown
Longitude
Unknown
Altitude
Unknown
Speed
Unknown
Apparent Right ascension
Unknown
Apparent Declination
Unknown
Sunlit
N/A
Visualization observer readout
Local Sidereal Time
07:19:49
Azimuth
Unknown
Elevation
Unknown
Doppler factor
Unknown
Orbital elements
Apogee altitude
987.34 km
Perigee altitude
834.542 km
Semi-major axis
7,289.078 km
Eccentricity
0.01048
Inclination
86.5083°
RAAN
32.8148°
Arg. of periapsis
24.5538°
True anomaly
335.56408°
Mean anomaly
336.0574°
Eccentric anomaly
335.81134°
Mean motion
3.48766 °/min
Orbital period
103.22 mins
BSTAR
0.000027065
Loading maneuver chart data...
Computing Atmospheric mass density...
Loading historical data...
Loading historical data...
Loading historical data...
Loading historical data...
Loading historical data...
Loading historical data...
Loading historical data...

Documentation

Showing up to 5 results
|